DW4466 Weather Reports


Display with metric or nautical units.
time (UTC)temp
F
wind
direction
speed
MPH
gust
MPH
rain 1hr
in
rain 24hr
in
rain mn
in
humidity
%
barometer
mb
20211202061547 46 169 0.0 0.0 0.00 0.00 0.00 66 1015.6
20211202061003 46 169 0.0 0.0 0.00 0.00 0.00 65 1015.6
20211202060523 46 169 0.0 0.0 0.00 0.00 0.00 65 1015.6
20211202060137 46 169 0.0 0.0 0.00 0.00 0.00 65 1015.6
20211202060004 46 169 0.0 0.0 0.00 0.00 0.00 65 1015.6
20211202055549 46 169 0.0 0.0 0.00 0.00 0.00 65 1015.7
20211202055114 46 169 0.0 0.0 0.00 0.00 0.00 65 1015.9
20211202055002 46 169 0.0 0.0 0.00 0.00 0.00 65 1015.9
20211202054626 46 169 0.0 0.0 0.00 0.00 0.00 65 1016.0
20211202054103 46 169 0.0 0.0 0.00 0.00 0.00 66 1016.0
20211202053546 46 169 0.0 0.0 0.00 0.00 0.00 65 1016.1
20211202053144 46 169 0.0 0.0 0.00 0.00 0.00 65 1016.1
20211202052600 46 169 0.0 0.0 0.00 0.00 0.00 65 1016.2
20211202052022 47 169 0.0 0.0 0.00 0.00 0.00 64 1016.3
20211202051615 47 169 0.0 0.0 0.00 0.00 0.00 64 1016.5
20211202051019 47 169 0.0 0.0 0.00 0.00 0.00 64 1016.5
20211202050559 47 169 0.0 0.0 0.00 0.00 0.00 64 1016.5
20211202050507 47 169 0.0 0.0 0.00 0.00 0.00 64 1016.5
20211202050045 47 169 0.0 0.0 0.00 0.00 0.00 64 1016.5
20211202045604 47 169 0.0 0.0 0.00 0.00 0.00 64 1016.7
20211202045027 47 169 0.0 0.0 0.00 0.00 0.00 64 1016.8
20211202044640 47 169 0.0 0.0 0.00 0.00 0.00 64 1016.9
20211202044008 47 169 0.0 0.0 0.00 0.00 0.00 64 1016.9
20211202043536 47 169 0.0 0.0 0.00 0.00 0.00 64 1016.9
20211202043010 47 169 0.0 0.0 0.00 0.00 0.00 64 1016.9
20211202042536 48 169 0.0 0.0 0.00 0.00 0.00 64 1017.0
20211202042012 48 169 0.0 0.0 0.00 0.00 0.00 63 1017.2
20211202041622 48 169 0.0 3.0 0.00 0.00 0.00 63 1017.2
20211202041026 48 169 0.0 4.0 0.00 0.00 0.00 64 1017.2
20211202040510 48 169 0.0 0.0 0.00 0.00 0.00 64 1017.4
20211202040031 48 169 0.0 0.0 0.00 0.00 0.00 63 1017.4
20211202035504 48 169 0.0 0.0 0.00 0.00 0.00 63 1017.3
20211202035038 48 169 0.0 0.0 0.00 0.00 0.00 62 1017.4
20211202034553 48 169 0.0 2.0 0.00 0.00 0.00 63 1017.6
20211202034048 48 169 0.0 0.0 0.00 0.00 0.00 62 1017.6
20211202033535 49 169 0.0 0.0 0.00 0.00 0.00 61 1017.9
20211202033207 49 169 0.0 3.0 0.00 0.00 0.00 63 1018.0
20211202032536 49 162 0.0 3.0 0.00 0.00 0.00 59 1017.8
20211202032112 49 162 0.0 7.0 0.00 0.00 0.00 59 1017.7
20211202032010 49 162 0.0 7.0 0.00 0.00 0.00 60 1017.7
20211202031558 49 162 0.0 7.0 0.00 0.00 0.00 59 1017.8
20211202031100 49 166 0.0 8.0 0.00 0.00 0.00 58 1017.9
20211202031010 49 166 0.0 8.0 0.00 0.00 0.00 58 1018.0
20211202030542 50 175 0.0 8.0 0.00 0.00 0.00 57 1018.2
20211202030105 50 158 4.0 8.0 0.00 0.00 0.00 56 1018.2
20211202025554 50 158 2.0 8.0 0.00 0.00 0.00 57 1018.3
20211202025016 50 196 0.0 7.0 0.00 0.00 0.00 57 1018.4
20211202024644 50 172 2.0 8.0 0.00 0.00 0.00 57 1018.4
20211202024019 50 153 2.0 8.0 0.00 0.00 0.00 57 1018.5
20211202023548 50 163 4.0 10.0 0.00 0.00 0.00 56 1018.6
20211202023106 50 176 6.0 10.0 0.00 0.00 0.00 57 1018.7
20211202022549 50 166 3.0 12.0 0.00 0.00 0.00 57 1018.8
20211202022025 49 153 4.0 12.0 0.00 0.00 0.00 58 1018.7
20211202021629 49 155 5.0 9.0 0.00 0.00 0.00 58 1018.8
20211202021032 49 164 5.0 9.0 0.00 0.00 0.00 58 1018.8
20211202020557 49 148 1.0 7.0 0.00 0.00 0.00 59 1019.0
20211202020043 49 167 2.0 7.0 0.00 0.00 0.00 58 1019.0
20211202015556 49 162 0.0 0.0 0.00 0.00 0.00 59 1019.2
20211202015022 49 162 0.0 0.0 0.00 0.00 0.00 58 1019.3
20211202014710 49 162 0.0 0.0 0.00 0.00 0.00 57 1019.3
20211202014032 49 162 0.0 0.0 0.00 0.00 0.00 58 1019.2
20211202013503 49 162 0.0 2.0 0.00 0.00 0.00 57 1019.2
20211202013103 49 162 0.0 0.0 0.00 0.00 0.00 57 1019.4
20211202012600 49 162 0.0 6.0 0.00 0.00 0.00 57 1019.3
20211202012034 49 162 0.0 6.0 0.00 0.00 0.00 56 1019.5
20211202011659 49 162 0.0 0.0 0.00 0.00 0.00 56 1019.6
20211202011011 50 162 0.0 0.0 0.00 0.00 0.00 56 1019.7
20211202010548 50 162 0.0 0.0 0.00 0.00 0.00 55 1019.8
20211202010038 50 162 0.0 0.0 0.00 0.00 0.00 55 1019.7
20211202005547 50 162 0.0 2.0 0.00 0.00 0.00 55 1019.7
20211202005009 50 162 0.0 6.0 0.00 0.00 0.00 55 1019.8
20211202004602 50 162 0.0 5.0 0.00 0.00 0.00 55 1019.9
20211202004011 50 162 0.0 5.0 0.00 0.00 0.00 56 1019.9
20211202003542 50 145 0.0 6.0 0.00 0.00 0.00 56 1020.1
20211202003023 49 145 0.0 6.0 0.00 0.00 0.00 57 1020.0
20211202002533 49 128 0.0 5.0 0.00 0.00 0.00 57 1020.0
20211202002024 50 130 0.0 5.0 0.00 0.00 0.00 57 1020.2
20211202001555 50 128 0.0 5.0 0.00 0.00 0.00 57 1020.2
20211202001040 50 136 0.0 0.0 0.00 0.00 0.00 56 1020.4
20211202000544 50 136 0.0 0.0 0.00 0.00 0.00 56 1020.5
20211202000033 50 136 0.0 4.0 0.00 0.00 0.00 56 1020.5
20211201235540 50 136 1.0 4.0 0.00 0.00 0.00 56 1020.5
20211201235019 50 146 0.0 5.0 0.00 0.00 0.00 56 1020.5
20211201234733 50 168 0.0 5.0 0.00 0.00 0.00 56 1020.5
20211201234021 50 174 0.0 2.0 0.00 0.00 0.00 55 1020.7
20211201233549 50 174 0.0 2.0 0.00 0.00 0.00 55 1020.5
20211201233156 50 176 0.0 0.0 0.00 0.00 0.00 55 1020.4
20211201233001 50 175 0.0 0.0 0.00 0.00 0.00 55 1020.4
20211201232544 49 176 0.0 0.0 0.00 0.00 0.00 55 1020.5
20211201232003 49 176 0.0 0.0 0.00 0.00 0.00 56 1020.5
20211201231613 49 176 0.0 0.0 0.00 0.00 0.00 56 1020.5
20211201231005 49 176 0.0 0.0 0.00 0.00 0.00 56 1020.1
20211201230533 49 176 0.0 0.0 0.00 0.00 0.00 57 1020.3
20211201230012 50 176 0.0 0.0 0.00 0.00 0.00 54 1020.6
20211201225540 50 176 0.0 0.0 0.00 0.00 0.00 54 1020.4
20211201225006 50 176 0.0 0.0 0.00 0.00 0.00 53 1020.6
20211201224538 50 176 0.0 0.0 0.00 0.00 0.00 55 1020.6
20211201224038 50 176 0.0 0.0 0.00 0.00 0.00 55 1020.6
20211201223555 50 176 0.0 0.0 0.00 0.00 0.00 54 1020.5
20211201223059 50 176 0.0 0.0 0.00 0.00 0.00 55 1020.4
20211201222600 50 176 0.0 0.0 0.00 0.00 0.00 56 1020.7
20211201222030 51 176 0.0 0.0 0.00 0.00 0.00 57 1020.8
20211201221636 51 176 0.0 0.0 0.00 0.00 0.00 53 1020.5
20211201221033 51 176 0.0 0.0 0.00 0.00 0.00 51 1020.2
20211201220608 51 176 0.0 0.0 0.00 0.00 0.00 52 1020.7
20211201220109 52 176 0.0 0.0 0.00 0.00 0.00 51 1020.6
20211201215602 52 176 0.0 0.0 0.00 0.00 0.00 47 1020.5
20211201215036 52 176 0.0 0.0 0.00 0.00 0.00 48 1020.5
20211201214611 52 176 0.0 0.0 0.00 0.00 0.00 48 1020.5
20211201214021 52 176 0.0 0.0 0.00 0.00 0.00 47 1020.4
20211201213557 53 176 0.0 0.0 0.00 0.00 0.00 46 1020.4
20211201213103 53 176 0.0 0.0 0.00 0.00 0.00 46 1020.4
20211201212535 53 176 0.0 0.0 0.00 0.00 0.00 46 1020.4
20211201212015 53 176 0.0 0.0 0.00 0.00 0.00 46 1020.4
20211201211616 53 176 0.0 0.0 0.00 0.00 0.00 46 1020.1
20211201211053 53 176 0.0 0.0 0.00 0.00 0.00 46 1020.0
20211201210539 53 176 0.0 0.0 0.00 0.00 0.00 45 1020.1
20211201210128 53 176 0.0 5.0 0.00 0.00 0.00 45 1020.0
20211201205536 53 176 0.0 5.0 0.00 0.00 0.00 45 1020.1
20211201205051 53 176 0.0 5.0 0.00 0.00 0.00 44 1020.3
20211201204533 53 176 0.0 5.0 0.00 0.00 0.00 44 1020.5
20211201204051 54 176 0.0 4.0 0.00 0.00 0.00 44 1020.5
20211201203527 54 176 1.0 5.0 0.00 0.00 0.00 44 1020.6
20211201203059 54 177 0.0 9.0 0.00 0.00 0.00 43 1020.5
20211201202513 54 178 4.0 8.0 0.00 0.00 0.00 42 1020.6
20211201202039 54 202 3.0 6.0 0.00 0.00 0.00 42 1020.7
20211201201521 54 202 1.0 10.0 0.00 0.00 0.00 43 1020.8
20211201201103 54 167 2.0 10.0 0.00 0.00 0.00 42 1020.8
20211201200519 55 174 4.0 10.0 0.00 0.00 0.00 41 1020.9
20211201200112 55 176 3.0 9.0 0.00 0.00 0.00 41 1020.8
20211201195523 55 143 2.0 12.0 0.00 0.00 0.00 40 1020.7
20211201195033 55 181 5.0 12.0 0.00 0.00 0.00 39 1020.7
20211201194630 56 159 3.0 10.0 0.00 0.00 0.00 39 1020.7
20211201194034 56 157 5.0 10.0 0.00 0.00 0.00 39 1020.6
20211201193600 56 172 1.0 7.0 0.00 0.00 0.00 39 1020.9
20211201193047 56 216 2.0 9.0 0.00 0.00 0.00 38 1020.9
20211201192604 56 148 6.0 12.0 0.00 0.00 0.00 36 1021.0
20211201192034 56 197 5.0 12.0 0.00 0.00 0.00 36 1021.2
20211201191648 57 138 4.0 11.0 0.00 0.00 0.00 35 1021.4
20211201191048 57 155 4.0 11.0 0.00 0.00 0.00 36 1021.4
20211201190552 57 163 5.0 11.0 0.00 0.00 0.00 36 1021.4
20211201190049 56 181 7.0 11.0 0.00 0.00 0.00 37 1021.7
20211201185550 56 176 4.0 13.0 0.00 0.00 0.00 36 1021.7
20211201185017 57 194 7.0 13.0 0.00 0.00 0.00 36 1021.6
20211201184620 56 175 5.0 11.0 0.00 0.00 0.00 38 1021.7
20211201184014 56 186 5.0 12.0 0.00 0.00 0.00 37 1021.7
20211201183550 56 200 4.0 11.0 0.00 0.00 0.00 37 1021.7
20211201183018 56 186 6.0 14.0 0.00 0.00 0.00 37 1021.8
20211201182603 56 167 6.0 14.0 0.00 0.00 0.00 38 1021.8
20211201182015 57 216 1.0 6.0 0.00 0.00 0.00 39 1021.9
20211201181539 56 201 0.0 8.0 0.00 0.00 0.00 42 1022.0
20211201181014 56 178 0.0 8.0 0.00 0.00 0.00 41 1022.0
20211201180550 56 176 0.0 7.0 0.00 0.00 0.00 42 1022.3
20211201180045 55 219 2.0 7.0 0.00 0.00 0.00 43 1022.3
20211201175549 55 180 1.0 6.0 0.00 0.00 0.00 45 1022.5
20211201175024 54 251 0.0 5.0 0.00 0.00 0.00 45 1022.5
20211201174709 54 252 1.0 8.0 0.00 0.00 0.00 47 1022.6
20211201174031 54 195 3.0 8.0 0.00 0.00 0.00 45 1022.6
20211201173556 54 257 3.0 7.0 0.00 0.00 0.00 45 1022.7
20211201173054 54 188 0.0 7.0 0.00 0.00 0.00 46 1022.7
20211201172601 54 188 4.0 7.0 0.00 0.00 0.00 46 1022.9
20211201172502 54 189 3.0 7.0 0.00 0.00 0.00 47 1022.8
20211201172028 53 228 0.0 6.0 0.00 0.00 0.00 49 1023.0
20211201171641 53 177 2.0 7.0 0.00 0.00 0.00 48 1023.2
20211201171504 53 172 1.0 5.0 0.00 0.00 0.00 49 1023.2
20211201171045 53 239 0.0 5.0 0.00 0.00 0.00 49 1023.4
20211201170601 52 238 2.0 5.0 0.00 0.00 0.00 51 1023.4
20211201170104 52 215 2.0 8.0 0.00 0.00 0.00 49 1023.3
20211201165605 52 244 2.0 8.0 0.00 0.00 0.00 48 1023.4
20211201165505 52 244 4.0 8.0 0.00 0.00 0.00 50 1023.4
20211201165036 52 209 1.0 11.0 0.00 0.00 0.00 48 1023.4
20211201164535 52 172 6.0 11.0 0.00 0.00 0.00 49 1023.4
20211201164054 52 168 2.0 9.0 0.00 0.00 0.00 54 1023.5
20211201163530 51 144 0.0 8.0 0.00 0.00 0.00 54 1023.6
20211201163152 51 165 5.0 9.0 0.00 0.00 0.00 52 1023.7
20211201162546 50 271 0.0 4.0 0.00 0.00 0.00 53 1023.7
20211201162022 50 271 0.0 4.0 0.00 0.00 0.00 56 1023.9
20211201161629 50 273 0.0 0.0 0.00 0.00 0.00 56 1023.9
20211201161032 50 152 0.0 0.0 0.00 0.00 0.00 53 1024.0
20211201160558 49 152 0.0 0.0 0.00 0.00 0.00 54 1024.3
20211201160502 49 152 0.0 0.0 0.00 0.00 0.00 55 1024.4
20211201160104 49 150 0.0 0.0 0.00 0.00 0.00 56 1024.4
20211201155508 49 51 0.0 1.0 0.00 0.00 0.00 55 1024.4
20211201155044 49 52 0.0 1.0 0.00 0.00 0.00 58 1024.3
20211201154527 48 313 0.0 0.0 0.00 0.00 0.00 57 1024.3
20211201154044 48 313 0.0 0.0 0.00 0.00 0.00 56 1024.6
20211201153510 48 313 0.0 0.0 0.00 0.00 0.00 57 1024.8
20211201153219 48 313 0.0 0.0 0.00 0.00 0.00 58 1024.9
20211201152524 48 313 0.0 0.0 0.00 0.00 0.00 59 1024.9
20211201152054 47 313 0.0 0.0 0.00 0.00 0.00 58 1024.9
20211201151558 47 313 0.0 0.0 0.00 0.00 0.00 58 1025.0
20211201151054 47 313 0.0 0.0 0.00 0.00 0.00 59 1024.9
20211201150537 47 313 0.0 5.0 0.00 0.00 0.00 60 1024.9
20211201150155 47 313 1.0 8.0 0.00 0.00 0.00 59 1025.0
20211201145537 47 306 0.0 3.0 0.00 0.00 0.00 61 1025.2
20211201145010 46 306 0.0 5.0 0.00 0.00 0.00 63 1025.0
20211201144559 46 306 0.0 5.0 0.00 0.00 0.00 62 1025.0
20211201144021 46 308 2.0 6.0 0.00 0.00 0.00 65 1025.1
20211201143543 46 304 1.0 5.0 0.00 0.00 0.00 64 1025.1
20211201143126 45 310 0.0 3.0 0.00 0.00 0.00 65 1025.0
20211201143011 45 310 0.0 3.0 0.00 0.00 0.00 66 1025.0
20211201142548 45 310 0.0 5.0 0.00 0.00 0.00 65 1025.0
20211201142023 45 325 2.0 5.0 0.00 0.00 0.00 64 1025.0
20211201141628 44 317 3.0 5.0 0.00 0.00 0.00 66 1024.9
20211201141020 43 342 0.0 5.0 0.00 0.00 0.00 69 1024.8
20211201140553 41 342 0.0 0.0 0.00 0.00 0.00 70 1024.5
20211201140207 40 342 0.0 0.0 0.00 0.00 0.00 69 1024.3
20211201135605 40 342 0.0 0.0 0.00 0.00 0.00 70 1024.0
20211201135054 40 342 0.0 0.0 0.00 0.00 0.00 71 1024.2
20211201134510 39 343 0.0 0.0 0.00 0.00 0.00 70 1024.2
20211201134038 39 342 0.0 0.0 0.00 0.00 0.00 71 1024.1
20211201133513 39 342 0.0 0.0 0.00 0.00 0.00 71 1024.1
20211201133333 39 342 0.0 0.0 0.00 0.00 0.00 70 1023.8
20211201132534 39 342 0.0 0.0 0.00 0.00 0.00 69 1023.4
20211201132007 38 342 0.0 4.0 0.00 0.00 0.00 71 1023.6
20211201131557 38 342 0.0 4.0 0.00 0.00 0.00 72 1023.8
20211201131023 38 334 0.0 0.0 0.00 0.00 0.00 71 1023.9
20211201130557 38 334 0.0 0.0 0.00 0.00 0.00 70 1024.0
20211201130119 39 334 0.0 0.0 0.00 0.00 0.00 71 1024.0
20211201125513 39 334 0.0 0.0 0.00 0.00 0.00 71 1023.8
20211201125036 39 333 0.0 3.0 0.00 0.00 0.00 69 1023.8
20211201124614 39 333 0.0 3.0 0.00 0.00 0.00 71 1023.7
20211201124033 39 333 0.0 4.0 0.00 0.00 0.00 71 1023.9
20211201123519 40 333 0.0 5.0 0.00 0.00 0.00 69 1024.0
20211201123104 40 9 0.0 1.0 0.00 0.00 0.00 68 1023.9
20211201122519 41 348 0.0 0.0 0.00 0.00 0.00 67 1023.8
20211201122054 41 348 0.0 0.0 0.00 0.00 0.00 66 1023.7
20211201121551 42 348 0.0 0.0 0.00 0.00 0.00 65 1023.7
20211201121011 42 348 0.0 5.0 0.00 0.00 0.00 65 1023.9
20211201120556 42 348 0.0 8.0 0.00 0.00 0.00 65 1023.9
20211201120112 42 348 2.0 8.0 0.00 0.00 0.00 65 1023.9
20211201115507 41 286 1.0 8.0 0.00 0.00 0.00 67 1023.9
20211201115039 40 296 0.0 3.0 0.00 0.00 0.00 67 1023.9
20211201114524 40 298 0.0 3.0 0.00 0.00 0.00 66 1023.8
20211201114106 40 323 0.0 3.0 0.00 0.00 0.00 67 1023.7
20211201113523 41 325 0.0 3.0 0.00 0.00 0.00 64 1023.5
20211201113116 42 355 0.0 0.0 0.00 0.00 0.00 63 1023.4
20211201113002 42 355 0.0 0.0 0.00 0.00 0.00 63 1023.2
20211201112521 42 355 0.0 0.0 0.00 0.00 0.00 62 1023.1
20211201112051 43 355 0.0 4.0 0.00 0.00 0.00 62 1023.0
20211201111542 43 355 0.0 6.0 0.00 0.00 0.00 63 1022.8
20211201111011 42 348 2.0 6.0 0.00 0.00 0.00 64 1022.7
20211201110545 41 325 3.0 6.0 0.00 0.00 0.00 64 1022.7
20211201110123 40 165 0.0 0.0 0.00 0.00 0.00 66 1022.7
20211201105547 41 165 0.0 0.0 0.00 0.00 0.00 63 1022.7
20211201105034 42 165 0.0 0.0 0.00 0.00 0.00 64 1022.8
20211201104649 41 165 0.0 0.0 0.00 0.00 0.00 65 1022.8
20211201104033 41 165 0.0 8.0 0.00 0.00 0.00 66 1022.8
20211201103609 40 165 2.0 8.0 0.00 0.00 0.00 67 1022.6
20211201103036 38 156 2.0 5.0 0.00 0.00 0.00 70 1022.6
20211201102602 37 144 1.0 4.0 0.00 0.00 0.00 71 1022.7
20211201102033 37 169 0.0 0.0 0.00 0.00 0.00 70 1022.4
20211201101631 37 169 0.0 2.0 0.00 0.00 0.00 71 1022.2
20211201101510 36 169 0.0 5.0 0.00 0.00 0.00 72 1022.1
20211201101040 35 169 0.0 5.0 0.00 0.00 0.00 73 1022.5
20211201100516 35 149 0.0 4.0 0.00 0.00 0.00 71 1022.1
20211201100134 35 262 0.0 3.0 0.00 0.00 0.00 72 1022.1
20211201095611 34 252 0.0 0.0 0.00 0.00 0.00 76 1022.2
20211201095504 34 252 0.0 0.0 0.00 0.00 0.00 76 1022.2
20211201095023 34 252 0.0 0.0 0.00 0.00 0.00 74 1022.3
20211201094622 33 252 0.0 4.0 0.00 0.00 0.00 75 1022.2
20211201094033 34 244 1.0 4.0 0.00 0.00 0.00 71 1022.1
20211201093530 33 224 0.0 0.0 0.00 0.00 0.00 77 1021.9
20211201093132 31 224 0.0 0.0 0.00 0.00 0.00 79 1021.7
20211201092521 30 224 0.0 0.0 0.00 0.00 0.00 79 1021.5
20211201092041 30 236 0.0 0.0 0.00 0.00 0.00 79 1021.4
20211201091535 30 236 0.0 0.0 0.00 0.00 0.00 77 1021.4
20211201091051 30 236 0.0 5.0 0.00 0.00 0.00 76 1021.4
20211201090513 30 303 0.0 5.0 0.00 0.00 0.00 79 1021.4
20211201090151 30 252 0.0 0.0 0.00 0.00 0.00 76 1021.2
20211201085526 31 252 0.0 0.0 0.00 0.00 0.00 74 1021.2
20211201085059 32 252 0.0 0.0 0.00 0.00 0.00 74 1021.3
20211201084555 32 252 0.0 0.0 0.00 0.00 0.00 73 1021.3
20211201084018 33 252 0.0 0.0 0.00 0.00 0.00 70 1021.4
20211201083538 34 252 0.0 0.0 0.00 0.00 0.00 70 1021.4
20211201083024 34 252 0.0 0.0 0.00 0.00 0.00 70 1021.3
20211201082559 34 252 0.0 0.0 0.00 0.00 0.00 69 1021.3
20211201082502 35 252 0.0 0.0 0.00 0.00 0.00 68 1021.3
20211201082042 35 252 0.0 0.0 0.00 0.00 0.00 68 1021.2
20211201081521 36 252 0.0 0.0 0.00 0.00 0.00 66 1021.1
20211201081047 36 252 0.0 0.0 0.00 0.00 0.00 66 1021.1
20211201080534 36 252 0.0 0.0 0.00 0.00 0.00 67 1021.0
20211201080010 36 252 0.0 0.0 0.00 0.00 0.00 65 1020.9
20211201075537 37 252 0.0 0.0 0.00 0.00 0.00 67 1020.9
20211201075012 37 327 0.0 4.0 0.00 0.00 0.00 62 1020.8
20211201074625 40 310 0.0 6.0 0.00 0.00 0.00 61 1020.6
20211201074011 39 308 3.0 6.0 0.00 0.00 0.00 64 1020.4
20211201073609 37 311 4.0 8.0 0.00 0.00 0.00 68 1020.3
20211201073052 35 304 5.0 8.0 0.00 0.00 0.00 70 1020.1
20211201072554 35 294 4.0 8.0 0.00 0.00 0.00 67 1020.1
20211201072010 36 287 4.0 8.0 0.00 0.00 0.00 65 1020.0
20211201071535 37 303 4.0 6.0 0.00 0.00 0.00 63 1020.0
20211201071020 39 303 2.0 4.0 0.00 0.00 0.00 61 1020.0
20211201070543 40 303 0.0 0.0 0.00 0.00 0.00 60 1019.9
20211201070021 41 303 0.0 5.0 0.00 0.00 0.00 57 1019.8
20211201065554 42 303 2.0 5.0 0.00 0.00 0.00 56 1019.6
20211201065030 42 306 0.0 5.0 0.00 0.00 0.00 55 1019.4
20211201064721 43 306 2.0 6.0 0.00 0.00 0.00 55 1019.3
20211201064055 42 304 3.0 8.0 0.00 0.00 0.00 55 1019.1
20211201063514 42 304 2.0 8.0 0.00 0.00 0.00 55 1019.1
20211201063027 43 290 4.0 8.0 0.00 0.00 0.00 55 1019.2
20211201062557 43 294 2.0 9.0 0.00 0.00 0.00 55 1019.1
20211201062017 42 302 5.0 9.0 0.00 0.00 0.00 56 1019.1